Overview Statistics Trail Chart Weather Telemetry Raw packets
 

This is the latest recevied weather packets stored in our database for station/object KN6CRX-10. If no packets are shown the sender has not sent any weather packets the latest 10 day(s).

<< 32 33 34 35 36 37 38 >>
Time Temp. Humidity Pressure Rain* Wind** Luminosity Snow
1788184669 8.33° C 72% 1021.3 hPa 0 mm - 28 W/m² -
1788184366 8.33° C 75% 1021.2 hPa 0 mm - 27 W/m² -
1788184061 7.78° C 75% 1021.3 hPa 0 mm - 26 W/m² -
1788183758 7.78° C 76% 1020.9 hPa 0 mm - 24 W/m² -
1788183457 7.22° C 76% 1021.2 hPa 0 mm - 23 W/m² -
1788183157 7.22° C 76% 1021 hPa 0 mm - 21 W/m² -
1788182852 7.22° C 75% 1021 hPa 0 mm - 19 W/m² -
1788182547 7.22° C 75% 1020.9 hPa 0 mm - 17 W/m² -
1788182246 6.67° C 77% 1021.2 hPa 0 mm - 15 W/m² -
1788181944 6.67° C 76% 1021 hPa 0 mm - 12 W/m² -
1788181638 6.67° C 73% 1021.2 hPa 0 mm - 9 W/m² -
1788181334 6.67° C 73% 1021.2 hPa 0 mm - 7 W/m² -
1788181032 7.22° C 72% 1021 hPa 0 mm - 5 W/m² -
1788180729 7.22° C 74% 1020.9 hPa 0 mm - 3 W/m² -
1788180429 7.22° C 73% 1020.9 hPa 0 mm - 2 W/m² -
1788180126 7.22° C 72% 1020.9 hPa 0 mm - 1 W/m² -
1788179825 7.22° C 70% 1020.8 hPa 0 mm - 0 W/m² -
1788179524 7.78° C 71% 1020.8 hPa 0 mm - 0 W/m² -
1788179224 7.78° C 69% 1020.8 hPa 0 mm - 0 W/m² -
1788178920 7.78° C 69% 1020.7 hPa 0 mm - 0 W/m² -
1788178636 7.78° C 69% 1020.9 hPa 0 mm - 0 W/m² -
1788178316 7.78° C 70% 1020.8 hPa 0 mm - 0 W/m² -
1788178011 7.78° C 71% 1020.9 hPa 0 mm - 0 W/m² -
1788177705 7.78° C 70% 1021.2 hPa 0 mm - 0 W/m² -
1788177402 7.22° C 72% 1021.2 hPa 0 mm - 0 W/m² -

* Rain latest hour (hover to see other rain measurements)
** Current wind speed in m/s (hover to see current wind gust speed)